This is the latest recevied weather packets stored in our database for station/object W5COG. If no packets are shown the sender has not sent any weather packets the latest 10 day(s).
| Time | Temp. | Humidity | Pressure | Rain* | Wind** | Luminosity | Snow |
|---|---|---|---|---|---|---|---|
| 1777575926 | 18.33° C | 47% | 1017.4 hPa | 0 mm | - | 546 W/m² | - |
| 1777575626 | 18.33° C | 50% | 1017.4 hPa | 0 mm | - | 764 W/m² | - |
| 1777575326 | 17.78° C | 49% | 1017.3 hPa | 0 mm | - | 768 W/m² | - |
| 1777575026 | 17.78° C | 48% | 1017.3 hPa | 0 mm | - | 813 W/m² | - |
| 1777574726 | 17.78° C | 47% | 1017.4 hPa | 0 mm | - | 880 W/m² | - |
| 1777574426 | 17.78° C | 48% | 1017.4 hPa | 0 mm | - | 709 W/m² | - |
| 1777574126 | 17.78° C | 49% | 1017.4 hPa | 0 mm | - | 710 W/m² | - |
| 1777573226 | 17.78° C | 49% | 1017.4 hPa | 0 mm | - | 749 W/m² | - |
| 1777572926 | 17.78° C | 51% | 1017.4 hPa | 0 mm | - | 735 W/m² | - |
| 1777572626 | 17.78° C | 50% | 1017.5 hPa | 0 mm | - | 804 W/m² | - |
| 1777572326 | 17.78° C | 51% | 1017.5 hPa | 0 mm | - | 847 W/m² | - |
| 1777572026 | 17.22° C | 55% | 1017.5 hPa | 0 mm | - | 977 W/m² | - |
| 1777571726 | 16.67° C | 55% | 1017.7 hPa | 0 mm | - | 811 W/m² | - |
| 1777570826 | 15.56° C | 60% | 1018.3 hPa | 0 mm | - | 760 W/m² | - |
| 1777570526 | 15° C | 58% | 1018.4 hPa | 0 mm | - | 616 W/m² | - |
| 1777570226 | 15.56° C | 58% | 1018.6 hPa | 0 mm | - | 581 W/m² | - |
| 1777569926 | 15.56° C | 61% | 1018.7 hPa | 0 mm | - | 655 W/m² | - |
| 1777569626 | 15° C | 61% | 1018.8 hPa | 0 mm | - | 733 W/m² | - |
| 1777569326 | 15° C | 64% | 1018.8 hPa | 0 mm | - | 732 W/m² | - |
| 1777568427 | 14.44° C | 68% | 1018.9 hPa | 0 mm | - | 505 W/m² | - |
| 1777568127 | 14.44° C | 66% | 1019 hPa | 0 mm | - | 378 W/m² | - |
| 1777567826 | 13.89° C | 68% | 1018.9 hPa | 0 mm | - | 353 W/m² | - |
| 1777567527 | 13.89° C | 67% | 1019 hPa | 0 mm | - | 321 W/m² | - |
| 1777567227 | 13.89° C | 67% | 1019 hPa | 0 mm | - | 301 W/m² | - |
| 1777566927 | 13.89° C | 67% | 1019.2 hPa | 0 mm | - | 287 W/m² | - |
* Rain latest hour (hover to see other rain measurements)
** Current wind speed in m/s (hover to see current wind gust speed)